Weather History for Fargo, ND

Change the Weather History Date:

Sunday, March 4, 2012

  Actual Average Record
Temperature  
Mean Temperature 8 °F 22 °F  
Max Temperature 21 °F 30 °F 55 °F (2000)
Min Temperature -5 °F 14 °F -27 °F (1917)
Degree Days  
Heating Degree Days 57 43  
Month to date heating degree days 191 176  
Since 1 July heating degree days 5618 6854  
Cooling Degree Days 0 0  
Month to date cooling degree days 0 0  
Year to date cooling degree days 0 0  
Moisture  
Dew Point 8 °F    
Average Humidity 80    
Maximum Humidity 88    
Minimum Humidity 72    
Precipitation  
Precipitation 0.04 in 0.04 in 0.54 in (1966)
Month to date precipitation 0.05 0.15  
Year to date precipitation 1.58 1.46  
Snow  
Snow 0.80 in 0.30 in 5.40 in (1966)
Month to date snowfall 1.7 1.4  
Since 1 July snowfall 25.8 39.4  
Snow Depth 9.00 in    
Sea Level Pressure  
Sea Level Pressure 29.97 in    
Wind  
Wind Speed 5 mph (SSW)    
Max Wind Speed 10 mph    
Max Gust Speed 12 mph    
Visibility 4 miles    
Events Snow    
T = Trace of Precipitation, MM = Missing Value Source: NWS Daily Summary

Daily Weather History Graph

Daily Weather History Graph

Search for Another Location

Airport:

Trip Planner

Search our weather history database for the weather conditions in past years. The results will help you decide how hot, cold, wet, or windy it might be!

Date:

Astronomy

Mar. 04, 2012 Rise Set
Actual Time 7:00 AM CST 6:18 PM CST
Civil Twilight 6:30 AM CST 6:48 PM CST
Nautical Twilight 5:54 AM CST 7:23 PM CST
Astronomical Twilight 5:19 AM CST 7:59 PM CST
Moon 2:19 PM CST (3/4) 4:34 AM CST (3/4)
Length of Visible Light 12h 18m
Length of Day
11h 17m
Waxing Gibbous, 84% of the Moon is Illuminated
Mar 4
Waxing Gibbous
Mar 8
Full
Mar 14
Last Quarter
Mar 22
New
Mar 30
First Quarter

Hourly Weather History & Observations

Time (CST) Temp. Windchill Dew Point Humidity Pressure Visibility Wind Dir Wind Speed Gust Speed Precip Events Conditions
12:53 AM 1.9 °F - -6.0 °F 69% 29.95 in 10.0 mi Calm Calm - N/A   Clear
1:53 AM -0.9 °F - -7.1 °F 75% 29.95 in 10.0 mi Calm Calm - N/A   Clear
2:53 AM 1.0 °F -8.7 °F -4.0 °F 79% 29.93 in 9.0 mi SE 4.6 mph - N/A   Clear
3:53 AM 3.9 °F -8.2 °F -2.0 °F 76% 29.91 in 10.0 mi SE 6.9 mph - N/A   Overcast
4:53 AM 7.0 °F -1.7 °F 1.9 °F 80% 29.92 in 10.0 mi South 4.6 mph - N/A   Mostly Cloudy
5:53 AM 8.6 °F 2.0 °F 3.2 °F 79% 29.86 in 10.0 mi SE 3.5 mph - N/A   Overcast
6:36 AM 8.6 °F -2.6 °F 3.2 °F 79% 29.86 in 1.8 mi SE 6.9 mph - 0.00 in Snow Light Snow
6:53 AM 9.0 °F -0.9 °F 3.9 °F 80% 29.92 in 1.8 mi SE 5.8 mph - 0.00 in Snow Light Snow
7:02 AM 8.6 °F 0.1 °F 3.2 °F 79% 29.86 in 2.0 mi SE 4.6 mph - 0.00 in Snow Light Snow
7:13 AM 10.4 °F 0.8 °F 3.2 °F 73% 29.87 in 1.5 mi SE 5.8 mph - 0.01 in Snow Light Snow
7:53 AM 10.0 °F -0.9 °F 5.0 °F 80% 29.92 in 1.2 mi ESE 6.9 mph - 0.01 in Snow Light Snow
8:33 AM 12.2 °F 1.7 °F 6.8 °F 79% 29.84 in 2.0 mi SE 6.9 mph - 0.01 in Snow Light Snow
8:44 AM 12.2 °F 0.7 °F 6.8 °F 79% 29.84 in 4.0 mi ESE 8.1 mph - 0.01 in Snow Light Snow
8:53 AM 12.9 °F 1.6 °F 7.0 °F 77% 29.91 in 4.0 mi ESE 8.1 mph - 0.01 in Snow Light Snow
9:53 AM 15.1 °F 9.4 °F 9.0 °F 77% 29.93 in 4.0 mi ESE 3.5 mph - 0.00 in Snow Light Snow
10:03 AM 15.8 °F 6.1 °F 10.4 °F 79% 29.87 in 2.0 mi ESE 6.9 mph - 0.00 in Snow Light Snow
10:37 AM 15.8 °F - 10.4 °F 79% 29.91 in 1.5 mi Calm Calm - 0.00 in Snow Light Snow
10:45 AM 15.8 °F 10.2 °F 10.4 °F 79% 29.91 in 2.0 mi SW 3.5 mph - 0.00 in Snow Light Snow
10:53 AM 16.0 °F 8.8 °F 10.9 °F 81% 29.98 in 1.0 mi SW 4.6 mph - 0.00 in Snow Light Snow
11:01 AM 15.8 °F 8.6 °F 10.4 °F 79% 29.92 in 0.8 mi WSW 4.6 mph - 0.00 in Snow Light Snow
11:08 AM 15.8 °F 10.2 °F 10.4 °F 79% 29.92 in 1.5 mi SW 3.5 mph - 0.01 in Snow Light Snow
11:18 AM 17.6 °F 10.7 °F 10.4 °F 73% 29.93 in 2.5 mi WSW 4.6 mph - 0.01 in Snow Light Snow
11:27 AM 17.6 °F - 10.4 °F 73% 29.93 in 2.5 mi Calm Calm - 0.01 in Snow Light Snow
11:53 AM 18.0 °F 11.1 °F 10.9 °F 74% 30.01 in 2.5 mi West 4.6 mph - 0.01 in Snow Light Snow
12:02 PM 17.6 °F 10.7 °F 10.4 °F 73% 29.95 in 1.8 mi WNW 4.6 mph - 0.00 in Snow Light Snow
12:27 PM 17.6 °F 8.2 °F 10.4 °F 73% 29.97 in 2.0 mi NW 6.9 mph - 0.00 in Snow Light Snow
12:35 PM 17.6 °F 9.3 °F 10.4 °F 73% 29.97 in 1.5 mi NW 5.8 mph - 0.00 in Snow Light Snow
12:53 PM 18.0 °F 11.1 °F 10.9 °F 74% 30.03 in 1.8 mi NNE 4.6 mph - 0.01 in Snow Light Snow
1:04 PM 17.6 °F - 10.4 °F 73% 29.97 in 2.0 mi Calm Calm - 0.00 in Snow Light Snow
1:13 PM 19.4 °F - 10.4 °F 68% 29.97 in 1.8 mi Calm Calm - 0.00 in Snow Light Snow
1:22 PM 19.4 °F - 12.2 °F 74% 29.97 in 2.5 mi Calm Calm - 0.00 in Snow Light Snow
1:29 PM 21.2 °F - 12.2 °F 68% 29.97 in 4.0 mi Calm Calm - 0.00 in Snow Light Snow
1:53 PM 19.9 °F - 12.0 °F 71% 30.05 in 9.0 mi Calm Calm - 0.00 in   Overcast
2:53 PM 21.0 °F - 12.0 °F 68% 30.06 in 4.0 mi Calm Calm - 0.00 in Snow Light Snow
3:04 PM 19.4 °F - 12.2 °F 74% 30.00 in 2.0 mi Calm Calm - 0.00 in Snow Light Snow
3:53 PM 19.0 °F 12.3 °F 12.9 °F 77% 30.07 in 2.5 mi WNW 4.6 mph - 0.00 in Snow Light Snow
4:02 PM 19.4 °F 12.8 °F 12.2 °F 74% 30.01 in 3.0 mi West 4.6 mph - 0.00 in Snow Light Snow
4:53 PM 19.0 °F 13.9 °F 12.0 °F 74% 30.09 in 10.0 mi West 3.5 mph - 0.00 in   Overcast
5:53 PM 19.0 °F 12.3 °F 12.0 °F 74% 30.11 in 10.0 mi West 4.6 mph - N/A   Overcast
6:53 PM 19.9 °F 14.9 °F 12.9 °F 74% 30.13 in 10.0 mi WSW 3.5 mph - N/A   Overcast
7:53 PM 16.0 °F 6.3 °F 10.0 °F 77% 30.14 in 10.0 mi WSW 6.9 mph - N/A   Scattered Clouds
8:53 PM 12.2 °F 2.9 °F 8.6 °F 85% 30.08 in 7.0 mi West 5.8 mph - N/A   Clear
9:53 PM 10.0 °F -2.9 °F 6.1 °F 84% 30.15 in 6.0 mi WSW 9.2 mph - N/A   Clear
10:53 PM 7.0 °F -1.7 °F 3.0 °F 84% 30.15 in 4.0 mi South 4.6 mph - N/A   Clear
11:53 PM 5.0 °F -5.6 °F 1.9 °F 87% 30.13 in 4.0 mi South 5.8 mph - N/A   Clear